Location: La Oliva
(42.2466°N, 2.9955°E)
Time: 10:46:59
(UTC+00:00)

SL-4 R/B - Pass Details

Date: 22 April 2021
Orbit: 427 x 663 km, 51.6° (Epoch: 11 May)

Event Time Altitude Azimuth Distance (km) Brightness Sun altitude
Rises 19:43:22 0° 225° (SW) 2,706 5.8 -12.0°
Reaches altitude 10° 19:45:32 10° 222° (SW) 1,855 4.9 -12.3°
Maximum altitude 19:49:44 65° 141° (SE) 659 2.1 -13.0°
Drops below altitude 10° 19:54:18 10° 60° (ENE) 2,002 4.6 -13.7°
Sets 19:56:42 0° 58° (ENE) 2,941 5.5 -14.1°
